TimeCST,TemperatureF,Dew PointF,Humidity,Sea Level PressureIn,VisibilityMPH,Wind Direction,Wind SpeedMPH,Gust SpeedMPH,PrecipitationIn,Events,Conditions,WindDirDegrees,DateUTC
12:53 AM,52.0,30.0,43,29.61,10.0,South,16.1,-,N/A,,Clear,180,2013-02-18 06:53:00
1:53 AM,53.1,30.0,41,29.58,10.0,South,17.3,-,N/A,,Clear,190,2013-02-18 07:53:00
2:53 AM,53.1,30.0,41,29.56,10.0,SSW,15.0,24.2,N/A,,Clear,200,2013-02-18 08:53:00
3:53 AM,51.1,30.9,46,29.54,10.0,South,12.7,-,N/A,,Clear,180,2013-02-18 09:53:00
4:53 AM,48.9,30.9,50,29.54,10.0,South,9.2,-,N/A,,Clear,180,2013-02-18 10:53:00
5:53 AM,46.9,32.0,56,29.55,10.0,South,8.1,-,N/A,,Clear,170,2013-02-18 11:53:00
6:53 AM,42.1,30.9,65,29.56,10.0,Calm,Calm,-,N/A,,Clear,0,2013-02-18 12:53:00
7:53 AM,43.0,34.0,71,29.56,10.0,South,5.8,-,N/A,,Overcast,170,2013-02-18 13:53:00
8:53 AM,48.9,34.0,56,29.58,10.0,NW,15.0,-,N/A,,Overcast,320,2013-02-18 14:53:00
9:53 AM,41.0,30.0,65,29.62,10.0,NNW,19.6,-,N/A,,Overcast,340,2013-02-18 15:53:00
10:53 AM,39.9,33.1,77,29.65,8.0,North,19.6,-,0.03,Rain,Light Rain,350,2013-02-18 16:53:00
11:53 AM,41.0,33.1,73,29.68,10.0,North,20.7,35.7,0.00,,Overcast,350,2013-02-18 17:53:00
12:53 PM,41.0,32.0,70,29.69,10.0,NNW,24.2,35.7,N/A,,Overcast,340,2013-02-18 18:53:00
1:49 PM,41.0,30.2,65,29.71,10.0,NNW,33.4,40.3,N/A,,Overcast,340,2013-02-18 19:49:00
1:53 PM,39.9,30.0,68,29.72,10.0,North,31.1,40.3,N/A,,Overcast,350,2013-02-18 19:53:00
2:05 PM,37.4,30.2,75,29.73,10.0,NNW,24.2,33.4,N/A,,Overcast,330,2013-02-18 20:05:00
2:53 PM,35.1,28.9,78,29.78,5.0,NNW,31.1,38.0,0.00,Snow,Light Snow,330,2013-02-18 20:53:00
3:53 PM,35.1,24.1,64,29.81,10.0,NNW,29.9,38.0,0.00,,Mostly Cloudy,340,2013-02-18 21:53:00
4:28 PM,35.6,23.0,60,29.82,10.0,NNW,24.2,39.1,N/A,,Scattered Clouds,330,2013-02-18 22:28:00
4:53 PM,35.1,19.9,54,29.85,10.0,NNW,33.4,43.7,N/A,,Clear,330,2013-02-18 22:53:00
5:53 PM,30.9,17.1,57,29.92,10.0,NNW,31.1,39.1,N/A,,Clear,330,2013-02-18 23:53:00
6:53 PM,30.0,17.1,59,29.98,10.0,NNW,15.0,24.2,N/A,,Clear,330,2013-02-19 00:53:00
7:53 PM,28.0,16.0,61,30.01,10.0,NW,11.5,-,N/A,,Clear,320,2013-02-19 01:53:00
8:53 PM,28.0,16.0,61,30.03,10.0,WNW,10.4,-,N/A,,Clear,300,2013-02-19 02:53:00
9:53 PM,28.0,15.1,58,30.06,10.0,NW,13.8,21.9,N/A,,Clear,310,2013-02-19 03:53:00
10:53 PM,26.1,14.0,60,30.09,10.0,NW,15.0,-,N/A,,Clear,310,2013-02-19 04:53:00
11:53 PM,23.0,14.0,68,30.10,10.0,NW,6.9,-,N/A,,Clear,310,2013-02-19 05:53:00